Pasco, WA
on Wednesday, January 9, 2013

Wednesday
Previous Day Next Day
Daily Summary
 ActualAverageRecord
Temperature
Mean Temperature °F 34°F  
Max Temperature 55°F 41°F 67°F (1990)
Min Temperature 36°F 27°F 3°F (1993)
Degree Days
Heating Degree Days 19 31  
Month to date heating degree days 274 286  
Since 1 July heating degree days 2181 2502  
Cooling Degree Days 0 0  
Month to date cooling degree days 0 0  
Year to date cooling degree days 0 0  
Moisture
Dew Point 35°F   
Average Humidity 66    
Maximum Humidity 82    
Minimum Humidity 50    
Precipitation
Precipitation 0.00 in in 0.86 in (1953)
Month to date precipitation 0.27  
Year to date precipitation 0.27  
Snow
Snow 0.00 in in in ()
Snow Depth 0.00 in   
Wind
Wind Speed 10 mph   
Max Wind Speed 30 mph   
Max Gust Speed 36 mph   
Visibility 10 miles   
Events     

Key: T is trace of precipitation, MM is missing value
Source: NWS Daily Summary
Time(PST)TemperatureDew PointHumidity Pressure Visibility Wind DirectionWind SpeedGust SpeedPrecipitationEvents Conditions
12:53 AM 46.0°F 37.9°F 73% 29.89 in 10.0 miles East 9.2 mph - N/A   Clear
1:53 AM 44.1°F 37.0°F 76% 29.86 in 10.0 miles East 4.6 mph - N/A   Clear
2:53 AM 45.0°F 37.0°F 74% 29.86 in 10.0 miles Calm Calm - N/A   Clear
3:53 AM 44.1°F 37.0°F 76% 29.84 in 10.0 miles Calm Calm - N/A   Clear
4:53 AM 43.0°F 37.0°F 80% 29.78 in 10.0 miles SE 10.4 mph - N/A   Clear
5:53 AM 48.0°F 37.0°F 66% 29.75 in 10.0 miles SSE 13.8 mph - N/A   Clear
6:53 AM 48.9°F 37.0°F 64% 29.72 in 10.0 miles SSE 11.5 mph - N/A   Clear
7:53 AM 54.0°F 37.9°F 55% 29.68 in 10.0 miles SE 15.0 mph 20.7 mph N/A   Clear
9:53 AM 52.0°F 39.0°F 61% 29.65 in 10.0 miles Calm Calm - N/A   Mostly Cloudy
10:53 AM 53.1°F 39.0°F 59% 29.67 in 10.0 miles WSW 8.1 mph - N/A   Mostly Cloudy
11:53 AM 53.1°F 36.0°F 52% 29.67 in 10.0 miles WSW 12.7 mph - N/A   Mostly Cloudy
12:53 PM 50.0°F 37.0°F 61% 29.70 in 10.0 miles SW 23.0 mph 29.9 mph N/A   Mostly Cloudy
1:53 PM 48.0°F 36.0°F 63% 29.70 in 10.0 miles SW 23.0 mph 29.9 mph N/A   Mostly Cloudy
2:53 PM 46.9°F 36.0°F 66% 29.74 in 10.0 miles SW 19.6 mph 28.8 mph N/A   Mostly Cloudy
3:53 PM 46.0°F 34.0°F 63% 29.76 in 10.0 miles SW 17.3 mph 26.5 mph N/A   Mostly Cloudy
4:53 PM 44.1°F 33.1°F 65% 29.78 in 10.0 miles SW 18.4 mph - N/A   Mostly Cloudy
5:53 PM 43.0°F 32.0°F 65% 29.80 in 10.0 miles SW 10.4 mph - N/A   Mostly Cloudy
6:53 PM 43.0°F 32.0°F 65% 29.82 in 10.0 miles SW 10.4 mph - N/A   Overcast
7:53 PM 42.1°F 30.9°F 65% 29.83 in 10.0 miles WSW 13.8 mph - N/A   Overcast
8:53 PM 41.0°F 30.9°F 67% 29.86 in 10.0 miles SW 10.4 mph - N/A   Partly Cloudy
9:53 PM 39.0°F 30.0°F 70% 29.86 in 10.0 miles SW 11.5 mph - N/A   Clear
10:53 PM 37.9°F 30.0°F 73% 29.87 in 10.0 miles SW 9.2 mph - N/A   Clear
11:53 PM 37.0°F 28.9°F 73% 29.87 in 10.0 miles WSW 6.9 mph - N/A   Clear
Moon Phase
Jan. 09 Jan. 11 Jan. 18 Jan. 26 Feb. 03
Sunrise:07:38 AM (PST) Moon Rise:05:22 AM (PST)1/9
Sunset:04:29 PM (PST) Moon Set:02:36 PM (PST)1/9

Copyright © 2014 The Weather Underground, Inc.